Torna al catalogo

STARLINK-34065

AttivoComunicazioniVLEO
NORAD 63813·PAYLOAD·🇺🇸 United States

Lanciato May 4, 2025 da Cape Canaveral Space Force Station

Loading…

Prossimi Passaggi (prossime 24 ore)

TLE

AggiornatoSource: CelesTrak SupGP

Epoca: Sep 14, 2026, 21:40 UTC

1 63813C 25092K   26257.90326389 -.00018272  00000+0 -66172-3 0  2574
2 63813  43.0000 180.1238 0001372 261.2676 193.2901 15.27591488    12

Traccia STARLINK-34065 in tempo reale con AllMySat

Download on the App Store